Terminal Aerodrome Forecast
Issued by NWS Sioux Falls, SD

Home | Current Version | Previous Version | Text Only | Print | Product List | Glossary On
Versions: 1 2 3 4 5 6 7 8 9 10 11 12 13 14 15 16 17 18 19 20 21 22 23 24 25 26
000
FTUS43 KFSD 281738
TAFFSD
TAF
KFSD 281738Z 2818/2918 17010KT P6SM SCT120
     FM290000 VRB04KT P6SM SCT080
     FM291300 07008KT P6SM SCT008 BKN120=

USA.gov is the U.S. government's official web portal to all federal, state and local government web resources and services.